contact:dominique.lefevre@mio.osupytheas.fr, maurice.libes@osupytheas.fr, didier.mallarino@osupytheas.fr
Project:EMSO http://www.emso-fr.org/EMSO-France
Depth: 2436.0 m
Title:EMSO Ligure Ouest : Data MII capteur AQUADOPP
Date,Latitude,Longitude,X_East,Y_North,Z_Up,Amplitude_X,Amplitude_Y,Amplitude_Z,Batterie,SoundSpeed,Heading,Pitch,Roll,Pressure,TIS,Speed,Direction
, degrees North, degrees East, m.s-1, m.s-1,m.s-1, 1, 1, 1, Volt, m.s-1, degree, degree, degree, dbar, degree_C, m.s-1, degree
2023-11-12T00:04:03,42.805,6.029,0.027,-0.008,0.002,102.0,104.0,103.0,13.4,1505.2,352.4,-0.8,1.8,2471.454,13.29,0.028,106.5
2023-11-12T00:07:03,42.805,6.029,0.003,0.011,-0.017,104.0,104.0,101.0,13.3,1505.2,333.8,-0.8,1.8,2471.435,13.29,0.011,15.3
2023-11-12T00:10:03,42.805,6.029,0.007,0.016,0.023,105.0,104.0,101.0,13.3,1505.2,348.2,-0.8,1.8,2471.407,13.29,0.017,23.6
2023-11-12T00:13:03,42.805,6.029,0.012,-0.002,-0.02,102.0,104.0,103.0,13.3,1505.2,340.7,-0.8,1.8,2471.44,13.29,0.012,99.5
2023-11-12T00:16:03,42.805,6.029,0.019,0.031,0.006,103.0,105.0,102.0,13.4,1505.2,337.8,-0.8,1.8,2471.419,13.29,0.036,31.5
2023-11-12T00:19:03,42.805,6.029,0.022,0.0,0.011,103.0,104.0,103.0,13.4,1505.2,335.2,-0.8,1.8,2471.449,13.29,0.022,90.0
2023-11-12T00:22:03,42.805,6.029,0.015,0.003,-0.003,103.0,103.0,103.0,13.4,1505.2,342.8,-0.8,1.8,2471.443,13.29,0.015,78.7
2023-11-12T00:25:03,42.805,6.029,0.025,-0.014,-0.015,103.0,104.0,102.0,13.4,1505.2,359.0,-0.8,1.8,2471.408,13.29,0.028,119.3
2023-11-12T00:28:03,42.805,6.029,0.02,-0.03,-0.027,103.0,103.0,101.0,13.3,1505.2,351.3,-0.8,1.8,2471.419,13.29,0.036,146.3
2023-11-12T00:31:03,42.805,6.029,-0.004,0.023,-0.013,103.0,104.0,101.0,13.4,1505.2,334.9,-0.8,1.8,2471.428,13.29,0.023,350.1
2023-11-12T00:34:03,42.805,6.029,0.016,0.028,0.027,103.0,105.0,101.0,13.4,1505.2,356.4,-0.8,1.8,2471.416,13.29,0.032,29.7
2023-11-12T00:37:03,42.805,6.029,0.025,-0.021,-0.028,104.0,103.0,102.0,13.3,1505.2,341.0,-0.8,1.8,2471.413,13.29,0.032,130.0
2023-11-12T00:40:03,42.805,6.029,0.016,-0.006,-0.034,104.0,106.0,102.0,13.3,1505.2,344.5,-0.8,1.8,2471.447,13.29,0.017,110.6
2023-11-12T00:43:03,42.805,6.029,0.015,0.006,-0.006,103.0,104.0,103.0,13.3,1505.2,355.7,-0.8,1.8,2471.428,13.29,0.016,68.2
2023-11-12T00:46:03,42.805,6.029,0.018,0.016,0.005,105.0,105.0,102.0,13.3,1505.2,354.1,-0.8,1.8,2471.391,13.29,0.024,48.4
2023-11-12T00:49:03,42.805,6.029,0.019,0.031,0.014,103.0,105.0,103.0,13.4,1505.2,342.1,-0.8,1.8,2471.403,13.29,0.036,31.5
2023-11-12T00:52:03,42.805,6.029,0.017,-0.001,-0.013,105.0,103.0,103.0,13.4,1505.2,354.3,-0.8,1.9,2471.4,13.29,0.017,93.4
2023-11-12T00:55:03,42.805,6.029,0.019,0.001,-0.021,105.0,104.0,102.0,13.3,1505.2,336.8,-0.8,1.8,2471.41,13.29,0.019,87.0
2023-11-12T00:58:03,42.805,6.029,0.013,0.021,-0.006,105.0,104.0,102.0,13.3,1505.2,0.0,-0.8,1.8,2471.423,13.29,0.024,31.8
2023-11-12T01:04:03,42.805,6.029,0.032,-0.023,-0.008,105.0,105.0,103.0,13.4,1505.2,347.1,-0.8,1.8,2471.447,13.29,0.039,125.7
2023-11-12T01:07:03,42.805,6.029,0.013,0.012,-0.011,105.0,103.0,103.0,13.4,1505.2,336.5,-0.7,1.8,2471.437,13.29,0.017,47.3
2023-11-12T01:10:03,42.805,6.029,0.041,-0.011,-0.011,105.0,105.0,102.0,13.4,1505.2,359.0,-0.8,1.8,2471.446,13.29,0.042,105.0
2023-11-12T01:13:03,42.805,6.029,0.028,0.016,-0.007,104.0,105.0,102.0,13.3,1505.2,348.0,-0.8,1.8,2471.438,13.29,0.032,60.3
2023-11-12T01:16:03,42.805,6.029,0.001,0.007,-0.019,103.0,105.0,102.0,13.4,1505.2,336.4,-0.8,1.8,2471.439,13.29,0.007,8.1
2023-11-12T01:19:03,42.805,6.029,0.011,0.007,0.036,103.0,106.0,102.0,13.3,1505.2,335.6,-0.7,1.8,2471.463,13.29,0.013,57.5
2023-11-12T01:22:03,42.805,6.029,0.027,0.043,0.026,103.0,104.0,103.0,13.3,1505.2,345.9,-0.8,1.8,2471.408,13.29,0.05,32.1
2023-11-12T01:25:03,42.805,6.029,0.033,-0.002,0.014,104.0,103.0,102.0,13.3,1505.2,0.9,-0.8,1.8,2471.445,13.29,0.033,93.5
2023-11-12T01:28:03,42.805,6.029,0.03,0.024,0.032,104.0,102.0,102.0,13.3,1505.2,346.1,-0.7,1.8,2471.416,13.29,0.038,51.3
2023-11-12T01:31:03,42.805,6.029,0.015,0.004,0.001,105.0,103.0,104.0,13.4,1505.2,333.4,-0.8,1.8,2471.419,13.29,0.015,75.1
2023-11-12T01:34:03,42.805,6.029,0.034,-0.004,0.004,105.0,104.0,103.0,13.4,1505.2,357.4,-0.7,1.8,2471.417,13.29,0.034,96.7
2023-11-12T01:37:03,42.805,6.029,0.039,-0.011,-0.022,103.0,105.0,102.0,13.4,1505.2,350.8,-0.8,1.8,2471.435,13.29,0.04,105.7
2023-11-12T01:40:03,42.805,6.029,0.024,0.001,-0.027,104.0,103.0,103.0,13.4,1505.2,346.8,-0.8,1.8,2471.4,13.29,0.024,87.6
2023-11-12T01:43:03,42.805,6.029,0.03,0.006,-0.017,103.0,103.0,103.0,13.4,1505.2,344.7,-0.8,1.8,2471.402,13.29,0.03,78.7
2023-11-12T01:46:03,42.805,6.029,0.033,0.004,-0.016,106.0,103.0,102.0,13.4,1505.2,346.3,-0.8,1.8,2471.403,13.29,0.033,83.1
2023-11-12T01:49:03,42.805,6.029,0.029,-0.024,-0.019,104.0,104.0,102.0,13.4,1505.2,356.2,-0.8,1.8,2471.453,13.29,0.037,129.6
2023-11-12T01:52:03,42.805,6.029,0.031,-0.006,-0.028,104.0,106.0,101.0,13.3,1505.2,351.2,-0.8,1.8,2471.423,13.29,0.031,101.0
2023-11-12T01:55:03,42.805,6.029,0.024,-0.008,-0.013,105.0,105.0,102.0,13.4,1505.2,0.0,-0.8,1.8,2471.432,13.29,0.025,108.4
2023-11-12T01:58:03,42.805,6.029,0.028,0.013,-0.011,104.0,105.0,102.0,13.4,1505.2,340.7,-0.8,1.8,2471.418,13.29,0.03,65.1
2023-11-12T02:04:03,42.805,6.029,0.033,-0.005,-0.009,104.0,103.0,102.0,13.4,1505.2,341.5,-0.8,1.8,2471.472,13.29,0.033,98.6
2023-11-12T02:07:03,42.805,6.029,0.022,0.001,-0.002,104.0,103.0,102.0,13.4,1505.2,343.9,-0.8,1.8,2471.474,13.29,0.022,87.4
2023-11-12T02:10:03,42.805,6.029,0.051,-0.028,-0.009,103.0,105.0,102.0,13.4,1505.2,352.4,-0.7,1.8,2471.457,13.29,0.058,118.8
2023-11-12T02:13:03,42.805,6.029,0.018,-0.006,-0.016,104.0,103.0,103.0,13.4,1505.2,333.0,-0.8,1.8,2471.445,13.29,0.018,108.4
2023-11-12T02:16:03,42.805,6.029,0.042,-0.017,-0.006,103.0,104.0,103.0,13.3,1505.2,0.0,-0.7,1.8,2471.464,13.29,0.045,112.0
2023-11-12T02:19:03,42.805,6.029,0.03,-0.002,-0.004,104.0,103.0,103.0,13.3,1505.2,342.6,-0.8,1.8,2471.437,13.29,0.03,93.8
2023-11-12T02:22:03,42.805,6.029,0.028,0.0,-0.013,104.0,104.0,103.0,13.3,1505.2,333.8,-0.7,1.8,2471.458,13.29,0.028,90.0
2023-11-12T02:25:03,42.805,6.029,0.035,-0.013,0.007,103.0,105.0,102.0,13.4,1505.2,356.6,-0.8,1.8,2471.459,13.29,0.037,110.4
2023-11-12T02:28:03,42.805,6.029,0.028,0.009,0.008,104.0,104.0,103.0,13.3,1505.2,342.3,-0.8,1.8,2471.442,13.29,0.029,72.2
2023-11-12T02:31:03,42.805,6.029,0.035,-0.022,-0.017,104.0,103.0,102.0,13.3,1505.2,353.7,-0.7,1.8,2471.465,13.29,0.041,122.2
2023-11-12T02:34:03,42.805,6.029,0.038,-0.011,0.001,104.0,104.0,102.0,13.4,1505.2,333.8,-0.8,1.8,2471.431,13.29,0.039,106.1
2023-11-12T02:37:03,42.805,6.029,0.009,-0.002,-0.033,103.0,104.0,102.0,13.3,1505.2,345.7,-0.7,1.8,2471.423,13.29,0.009,102.5
2023-11-12T02:40:03,42.805,6.029,0.017,0.007,-0.002,104.0,104.0,102.0,13.3,1505.2,359.0,-0.8,1.8,2471.437,13.29,0.018,67.6
2023-11-12T02:43:03,42.805,6.029,0.015,0.018,-0.002,104.0,104.0,102.0,13.4,1505.2,345.9,-0.8,1.8,2471.436,13.29,0.023,39.8
2023-11-12T02:46:03,42.805,6.029,0.037,0.006,0.005,104.0,103.0,102.0,13.3,1505.2,335.2,-0.7,1.8,2471.423,13.29,0.037,80.8
2023-11-12T02:49:03,42.805,6.029,0.022,0.01,0.001,103.0,104.0,102.0,13.4,1505.2,343.6,-0.8,1.8,2471.443,13.29,0.024,65.6
2023-11-12T02:52:03,42.805,6.029,0.023,-0.003,0.008,105.0,104.0,102.0,13.3,1505.2,353.4,-0.8,1.8,2471.491,13.29,0.023,97.4
2023-11-12T02:55:03,42.805,6.029,0.05,0.006,-0.007,104.0,103.0,102.0,13.4,1505.2,340.3,-0.8,1.8,2471.474,13.29,0.05,83.2
2023-11-12T02:58:03,42.805,6.029,0.006,0.007,0.013,103.0,105.0,102.0,13.3,1505.2,341.8,-0.7,1.8,2471.497,13.29,0.009,40.6
2023-11-12T03:04:03,42.805,6.029,0.024,0.006,-0.013,104.0,103.0,103.0,13.4,1505.2,341.5,-0.8,1.8,2471.486,13.29,0.024,76.0
2023-11-12T03:07:03,42.805,6.029,0.028,0.001,0.005,104.0,104.0,102.0,13.3,1505.2,0.0,-0.8,1.8,2471.547,13.29,0.028,88.0
2023-11-12T03:10:03,42.805,6.029,0.04,0.009,0.011,103.0,104.0,103.0,13.4,1505.2,341.5,-0.8,1.8,2471.499,13.29,0.041,77.3
2023-11-12T03:13:03,42.805,6.029,0.044,0.019,-0.012,105.0,103.0,102.0,13.4,1505.2,333.8,-0.7,1.8,2471.525,13.29,0.047,66.6
2023-11-12T03:16:03,42.805,6.029,0.013,0.005,-0.01,103.0,103.0,103.0,13.4,1505.2,350.0,-0.8,1.8,2471.515,13.29,0.013,69.0
2023-11-12T03:19:03,42.805,6.029,0.032,0.017,-0.006,104.0,103.0,103.0,13.4,1505.2,353.5,-0.8,1.8,2471.52,13.29,0.036,62.0
2023-11-12T03:22:03,42.805,6.029,0.021,-0.009,-0.009,105.0,104.0,102.0,13.3,1505.2,349.2,-0.8,1.8,2471.494,13.29,0.022,113.2
2023-11-12T03:25:03,42.805,6.029,0.025,-0.008,-0.044,105.0,104.0,103.0,13.3,1505.2,335.4,-0.8,1.8,2471.481,13.29,0.026,107.7
2023-11-12T03:28:03,42.805,6.029,0.035,0.011,-0.005,103.0,104.0,102.0,13.3,1505.2,355.0,-0.7,1.8,2471.542,13.29,0.036,72.6
2023-11-12T03:31:03,42.805,6.029,0.015,0.001,-0.006,104.0,104.0,102.0,13.4,1505.2,353.8,-0.8,1.8,2471.528,13.29,0.015,86.2
2023-11-12T03:34:03,42.805,6.029,0.046,-0.006,0.007,104.0,104.0,103.0,13.4,1505.2,351.0,-0.8,1.8,2471.523,13.29,0.046,97.4
2023-11-12T03:37:03,42.805,6.029,0.038,0.0,-0.005,103.0,106.0,102.0,13.4,1505.2,351.3,-0.8,1.8,2471.498,13.29,0.038,90.0
2023-11-12T03:40:03,42.805,6.029,0.046,-0.002,0.002,104.0,105.0,103.0,13.4,1505.2,352.5,-0.8,1.8,2471.523,13.29,0.046,92.5
2023-11-12T03:43:03,42.805,6.029,0.037,-0.006,0.003,103.0,106.0,103.0,13.3,1505.2,339.1,-0.8,1.8,2471.515,13.29,0.037,99.2
2023-11-12T03:46:03,42.805,6.029,0.03,-0.01,-0.006,105.0,105.0,102.0,13.4,1505.2,0.0,-0.8,1.8,2471.493,13.29,0.031,108.4
2023-11-12T03:49:03,42.805,6.029,0.027,0.013,-0.008,105.0,105.0,103.0,13.4,1505.2,339.6,-0.8,1.8,2471.505,13.29,0.029,64.3
2023-11-12T03:52:03,42.805,6.029,0.05,-0.016,-0.029,105.0,104.0,103.0,13.4,1505.2,340.3,-0.8,1.8,2471.539,13.29,0.052,107.7
2023-11-12T03:55:03,42.805,6.029,0.022,-0.015,-0.003,104.0,105.0,102.0,13.4,1505.2,348.2,-0.8,1.8,2471.516,13.29,0.026,124.3
2023-11-12T03:58:03,42.805,6.029,0.021,-0.006,-0.022,105.0,104.0,102.0,13.4,1505.2,353.2,-0.8,1.8,2471.545,13.29,0.021,105.9
2023-11-12T04:04:03,42.805,6.029,0.015,0.003,-0.037,104.0,103.0,104.0,13.4,1505.2,343.3,-0.8,1.8,2471.559,13.29,0.015,78.7
2023-11-12T04:07:03,42.805,6.029,0.021,0.018,-0.007,104.0,105.0,102.0,13.4,1505.2,334.5,-0.7,1.8,2471.565,13.29,0.027,49.4
2023-11-12T04:10:03,42.805,6.029,0.032,-0.012,0.008,103.0,105.0,103.0,13.4,1505.2,359.0,-0.7,1.8,2471.592,13.29,0.034,110.6
2023-11-12T04:13:03,42.805,6.029,0.047,-0.002,0.027,105.0,103.0,102.0,13.4,1505.2,351.1,-0.8,1.9,2471.535,13.29,0.047,92.4
2023-11-12T04:16:03,42.805,6.029,0.022,0.017,0.021,104.0,105.0,103.0,13.4,1505.2,334.8,-0.8,1.8,2471.59,13.29,0.027,52.3
2023-11-12T04:19:03,42.805,6.029,0.038,0.021,0.001,104.0,105.0,103.0,13.4,1505.2,353.2,-0.8,1.8,2471.577,13.29,0.043,61.1
2023-11-12T04:22:03,42.805,6.029,0.046,0.006,0.011,104.0,104.0,102.0,13.4,1505.2,354.5,-0.8,1.8,2471.533,13.29,0.046,82.6
2023-11-12T04:25:03,42.805,6.029,0.047,-0.032,0.0,105.0,104.0,103.0,13.4,1505.2,342.7,-0.8,1.8,2471.586,13.29,0.056,124.2
2023-11-12T04:28:03,42.805,6.029,0.005,0.012,-0.006,104.0,105.0,103.0,13.4,1505.2,336.6,-0.8,1.8,2471.566,13.29,0.013,22.6
2023-11-12T04:31:03,42.805,6.029,0.027,-0.002,0.013,105.0,105.0,103.0,13.4,1505.2,345.9,-0.8,1.8,2471.563,13.29,0.027,94.2
2023-11-12T04:34:03,42.805,6.029,0.052,0.01,-0.018,105.0,105.0,103.0,13.3,1505.2,349.5,-0.7,1.8,2471.565,13.29,0.052,79.1
2023-11-12T04:37:03,42.805,6.029,0.03,-0.001,0.003,104.0,104.0,103.0,13.3,1505.2,350.5,-0.7,1.8,2471.554,13.29,0.03,91.9
2023-11-12T04:40:03,42.805,6.029,0.019,-0.008,-0.035,105.0,105.0,104.0,13.4,1505.2,352.6,-0.8,1.8,2471.585,13.29,0.02,112.8
2023-11-12T04:43:03,42.805,6.029,0.03,0.001,0.036,105.0,105.0,103.0,13.4,1505.2,340.7,-0.8,1.8,2471.576,13.29,0.03,88.1
2023-11-12T04:46:03,42.805,6.029,0.021,0.012,0.031,103.0,105.0,103.0,13.4,1505.2,351.6,-0.7,1.8,2471.57,13.29,0.024,60.3
2023-11-12T04:49:03,42.805,6.029,0.038,0.007,0.039,105.0,105.0,103.0,13.3,1505.2,335.6,-0.8,1.8,2471.595,13.29,0.038,79.6
2023-11-12T04:52:03,42.805,6.029,0.034,0.004,-0.037,104.0,107.0,103.0,13.3,1505.2,340.7,-0.8,1.8,2471.592,13.29,0.034,83.3
2023-11-12T04:55:03,42.805,6.029,0.043,-0.001,0.014,105.0,105.0,103.0,13.4,1505.2,351.0,-0.8,1.8,2471.579,13.29,0.043,91.3
2023-11-12T04:58:03,42.805,6.029,0.036,0.003,0.023,104.0,105.0,104.0,13.4,1505.2,336.5,-0.8,1.8,2471.567,13.29,0.036,85.2
2023-11-12T05:04:03,42.805,6.029,0.033,0.0,0.006,105.0,105.0,103.0,13.4,1505.2,0.0,-0.8,1.8,2471.612,13.29,0.033,90.0
2023-11-12T05:07:03,42.805,6.029,0.035,0.011,0.016,105.0,105.0,103.0,13.4,1505.2,344.5,-0.8,1.8,2471.613,13.29,0.036,72.6
2023-11-12T05:10:03,42.805,6.029,0.016,0.0,-0.043,106.0,105.0,102.0,13.3,1505.2,341.0,-0.8,1.8,2471.66,13.29,0.016,90.0
2023-11-12T05:13:03,42.805,6.029,0.032,0.0,0.018,105.0,106.0,102.0,13.3,1505.2,354.2,-0.8,1.8,2471.647,13.29,0.032,90.0
2023-11-12T05:16:03,42.805,6.029,0.04,0.0,0.021,106.0,104.0,103.0,13.4,1505.2,353.5,-0.8,1.8,2471.569,13.29,0.04,90.0
2023-11-12T05:19:03,42.805,6.029,0.038,-0.007,0.013,104.0,105.0,103.0,13.3,1505.2,348.6,-0.8,1.8,2471.601,13.29,0.038,100.4
2023-11-12T05:22:03,42.805,6.029,0.027,-0.003,0.003,105.0,105.0,102.0,13.4,1505.2,349.8,-0.7,1.8,2471.608,13.29,0.027,96.3
2023-11-12T05:25:03,42.805,6.029,0.008,-0.006,0.008,105.0,106.0,103.0,13.4,1505.2,349.2,-0.8,1.8,2471.625,13.29,0.01,126.9
2023-11-12T05:28:03,42.805,6.029,0.023,0.007,0.011,105.0,105.0,103.0,13.4,1505.2,339.3,-0.7,1.8,2471.598,13.29,0.024,73.1
2023-11-12T05:31:03,42.805,6.029,0.017,0.02,0.0,105.0,105.0,103.0,13.3,1505.2,346.9,-0.7,1.8,2471.619,13.29,0.026,40.4
2023-11-12T05:34:03,42.805,6.029,0.002,0.016,-0.045,104.0,105.0,103.0,13.3,1505.2,341.2,-0.8,1.8,2471.643,13.29,0.016,7.1
2023-11-12T05:37:03,42.805,6.029,0.029,0.001,-0.009,105.0,104.0,104.0,13.4,1505.2,344.8,-0.8,1.8,2471.631,13.29,0.029,88.0
2023-11-12T05:40:03,42.805,6.029,0.036,-0.001,0.039,105.0,104.0,103.0,13.4,1505.2,357.3,-0.8,1.8,2471.62,13.29,0.036,91.6
2023-11-12T05:43:03,42.805,6.029,0.024,0.015,0.0,105.0,105.0,103.0,13.3,1505.2,350.3,-0.7,1.8,2471.637,13.29,0.028,58.0
2023-11-12T05:46:03,42.805,6.029,0.044,0.005,0.016,105.0,105.0,103.0,13.3,1505.2,336.0,-0.8,1.8,2471.575,13.29,0.044,83.5
2023-11-12T05:49:03,42.805,6.029,0.041,-0.01,0.011,105.0,104.0,104.0,13.4,1505.2,351.8,-0.8,1.8,2471.598,13.29,0.042,103.7
2023-11-12T05:52:03,42.805,6.029,0.028,-0.018,-0.01,105.0,104.0,103.0,13.4,1505.2,350.0,-0.8,1.8,2471.592,13.29,0.033,122.7
2023-11-12T05:55:03,42.805,6.029,0.039,-0.011,-0.032,105.0,105.0,102.0,13.4,1505.2,349.4,-0.8,1.8,2471.598,13.29,0.04,105.7
2023-11-12T05:58:03,42.805,6.029,0.019,-0.003,-0.014,105.0,105.0,103.0,13.4,1505.2,342.8,-0.8,1.8,2471.627,13.29,0.019,99.0
2023-11-12T06:04:03,42.805,6.029,0.037,0.0,-0.003,105.0,104.0,103.0,13.4,1505.2,345.5,-0.8,1.8,2471.674,13.29,0.037,90.0
2023-11-12T06:07:03,42.805,6.029,0.02,0.001,-0.016,105.0,105.0,104.0,13.3,1505.2,336.9,-0.8,1.8,2471.665,13.29,0.02,87.1
2023-11-12T06:10:03,42.805,6.029,0.024,-0.001,0.001,105.0,105.0,103.0,13.4,1505.2,353.1,-0.8,1.8,2471.655,13.29,0.024,92.4
2023-11-12T06:13:03,42.805,6.029,0.028,-0.018,-0.014,104.0,105.0,103.0,13.4,1505.2,342.3,-0.8,1.8,2471.6,13.29,0.033,122.7
2023-11-12T06:16:03,42.805,6.029,0.031,0.007,0.021,105.0,105.0,102.0,13.4,1505.2,350.3,-0.8,1.8,2471.626,13.29,0.031,77.3
2023-11-12T06:19:03,42.805,6.029,0.005,0.007,-0.02,105.0,104.0,103.0,13.4,1505.2,335.9,-0.8,1.8,2471.61,13.29,0.008,35.5
2023-11-12T06:22:03,42.805,6.029,0.041,-0.021,-0.006,106.0,105.0,102.0,13.4,1505.2,359.0,-0.8,1.8,2471.629,13.29,0.046,117.1
2023-11-12T06:25:03,42.805,6.029,0.045,-0.018,-0.011,104.0,104.0,102.0,13.4,1505.2,342.0,-0.8,1.8,2471.659,13.29,0.048,111.8
2023-11-12T06:28:03,42.805,6.029,0.029,-0.004,-0.023,104.0,105.0,102.0,13.3,1505.2,336.1,-0.8,1.8,2471.61,13.29,0.029,97.8
2023-11-12T06:31:03,42.805,6.029,0.029,-0.011,-0.025,105.0,104.0,102.0,13.4,1505.2,355.9,-0.8,1.8,2471.632,13.29,0.031,110.8
2023-11-12T06:34:03,42.805,6.029,0.013,0.01,-0.033,105.0,105.0,103.0,13.4,1505.2,345.7,-0.8,1.8,2471.626,13.29,0.016,52.4
2023-11-12T06:37:03,42.805,6.029,0.026,-0.009,-0.005,104.0,105.0,104.0,13.3,1505.2,349.0,-0.8,1.8,2471.608,13.29,0.027,109.1
2023-11-12T06:40:03,42.805,6.029,0.031,-0.025,-0.017,104.0,104.0,103.0,13.4,1505.2,352.7,-0.8,1.8,2471.623,13.29,0.039,128.9
2023-11-12T06:43:03,42.805,6.029,0.041,-0.016,0.027,105.0,104.0,102.0,13.4,1505.2,352.2,-0.7,1.8,2471.602,13.29,0.044,111.3
2023-11-12T06:46:03,42.805,6.029,0.029,0.013,0.005,105.0,103.0,103.0,13.4,1505.2,351.4,-0.8,1.8,2471.6,13.29,0.031,65.9
2023-11-12T06:49:03,42.805,6.029,0.024,0.003,0.005,103.0,105.0,103.0,13.4,1505.2,346.3,-0.8,1.8,2471.637,13.29,0.024,82.9
2023-11-12T06:52:03,42.805,6.029,0.033,-0.019,0.002,105.0,104.0,103.0,13.3,1505.2,356.1,-0.8,1.8,2471.583,13.29,0.038,119.9
2023-11-12T06:55:03,42.805,6.029,0.035,-0.011,-0.016,104.0,104.0,102.0,13.4,1505.2,350.8,-0.8,1.8,2471.598,13.29,0.036,107.4
2023-11-12T06:58:03,42.805,6.029,0.025,-0.011,-0.025,104.0,105.0,103.0,13.4,1505.2,333.4,-0.8,1.8,2471.645,13.29,0.027,113.7
2023-11-12T07:04:03,42.805,6.029,0.027,-0.004,-0.003,105.0,104.0,103.0,13.3,1505.2,343.1,-0.8,1.8,2471.651,13.29,0.027,98.4
2023-11-12T07:07:03,42.805,6.029,0.031,0.019,-0.006,107.0,104.0,103.0,13.3,1505.2,341.8,-0.8,1.8,2471.667,13.29,0.036,58.5
2023-11-12T07:10:03,42.805,6.029,0.045,0.019,-0.001,104.0,104.0,103.0,13.4,1505.2,339.5,-0.8,1.8,2471.656,13.29,0.048,67.1
2023-11-12T07:13:03,42.805,6.029,-0.001,0.0,-0.001,105.0,105.0,103.0,13.4,1505.2,346.6,-0.8,1.8,2471.62,13.29,0.001,270.0
2023-11-12T07:16:03,42.805,6.029,0.025,0.024,0.035,103.0,106.0,102.0,13.3,1505.2,335.4,-0.8,1.8,2471.66,13.29,0.034,46.2
2023-11-12T07:19:03,42.805,6.029,0.022,0.015,0.014,105.0,103.0,103.0,13.4,1505.2,337.0,-0.8,1.8,2471.612,13.29,0.026,55.7
2023-11-12T07:22:03,42.805,6.029,0.037,0.0,-0.02,104.0,104.0,103.0,13.4,1505.2,350.3,-0.7,1.8,2471.629,13.29,0.037,90.0
2023-11-12T07:25:03,42.805,6.029,0.023,-0.003,-0.01,105.0,104.0,103.0,13.3,1505.2,353.4,-0.8,1.8,2471.653,13.29,0.023,97.4
2023-11-12T07:28:03,42.805,6.029,0.028,-0.011,-0.015,105.0,105.0,103.0,13.3,1505.2,334.6,-0.8,1.8,2471.648,13.29,0.03,111.4
2023-11-12T07:31:03,42.805,6.029,0.024,-0.019,-0.004,105.0,105.0,103.0,13.4,1505.2,352.1,-0.8,1.8,2471.617,13.29,0.03,128.4
2023-11-12T07:34:03,42.805,6.029,0.017,-0.009,-0.04,104.0,105.0,103.0,13.4,1505.2,353.4,-0.7,1.8,2471.6,13.29,0.019,117.9
2023-11-12T07:37:03,42.805,6.029,0.012,0.007,-0.027,105.0,104.0,102.0,13.4,1505.2,341.8,-0.8,1.8,2471.643,13.29,0.013,59.7
2023-11-12T07:40:03,42.805,6.029,0.026,0.002,-0.014,105.0,104.0,102.0,13.3,1505.2,339.3,-0.8,1.8,2471.632,13.29,0.026,85.6
2023-11-12T07:43:03,42.805,6.029,0.04,-0.01,-0.02,105.0,105.0,102.0,13.4,1505.2,354.0,-0.8,1.8,2471.583,13.29,0.041,104.0
2023-11-12T07:46:03,42.805,6.029,0.028,-0.02,-0.014,104.0,104.0,103.0,13.4,1505.2,353.5,-0.8,1.8,2471.619,13.29,0.034,125.5
2023-11-12T07:49:03,42.805,6.029,0.048,-0.001,-0.011,104.0,105.0,103.0,13.4,1505.2,335.9,-0.7,1.8,2471.604,13.29,0.048,91.2
2023-11-12T07:52:03,42.805,6.029,0.021,-0.002,0.0,104.0,105.0,103.0,13.3,1505.2,359.0,-0.8,1.8,2471.624,13.29,0.021,95.4
2023-11-12T07:55:03,42.805,6.029,0.024,-0.022,-0.016,106.0,105.0,104.0,13.3,1505.2,341.0,-0.7,1.8,2471.623,13.29,0.032,132.5
2023-11-12T07:58:03,42.805,6.029,0.035,-0.022,-0.007,105.0,105.0,102.0,13.3,1505.2,341.2,-0.8,1.8,2471.603,13.29,0.041,122.2
2023-11-12T08:04:03,42.805,6.029,0.028,-0.013,0.012,105.0,105.0,103.0,13.4,1505.2,342.0,-0.8,1.8,2471.639,13.29,0.03,114.9
2023-11-12T08:07:03,42.805,6.029,0.04,-0.005,-0.037,104.0,105.0,103.0,13.4,1505.2,333.8,-0.7,1.8,2471.644,13.29,0.04,97.1
2023-11-12T08:10:03,42.805,6.029,0.018,-0.008,0.0,105.0,104.0,103.0,13.4,1505.2,358.0,-0.8,1.8,2471.654,13.29,0.019,114.0
2023-11-12T08:13:03,42.805,6.029,0.023,0.0,-0.019,105.0,105.0,102.0,13.3,1505.2,351.9,-0.8,1.8,2471.611,13.29,0.023,90.0
2023-11-12T08:16:03,42.805,6.029,0.027,-0.002,-0.022,105.0,105.0,102.0,13.4,1505.2,340.1,-0.7,1.9,2471.62,13.29,0.027,94.2
2023-11-12T08:19:03,42.805,6.029,0.039,-0.021,-0.001,104.0,105.0,103.0,13.4,1505.2,341.8,-0.8,1.8,2471.617,13.29,0.044,118.3
2023-11-12T08:22:03,42.805,6.029,0.024,-0.004,0.003,105.0,106.0,103.0,13.3,1505.2,340.0,-0.7,1.8,2471.589,13.29,0.024,99.5
2023-11-12T08:25:03,42.805,6.029,0.013,-0.013,-0.016,105.0,105.0,102.0,13.4,1505.2,351.4,-0.8,1.8,2471.627,13.29,0.018,135.0
2023-11-12T08:28:03,42.805,6.029,0.04,0.0,0.003,105.0,105.0,102.0,13.3,1505.2,335.3,-0.8,1.8,2471.601,13.29,0.04,90.0
2023-11-12T08:31:03,42.805,6.029,0.035,0.005,0.012,105.0,105.0,104.0,13.3,1505.2,342.9,-0.8,1.8,2471.614,13.29,0.035,81.9
2023-11-12T08:34:03,42.805,6.029,0.025,-0.001,-0.037,105.0,104.0,103.0,13.4,1505.2,336.6,-0.8,1.8,2471.62,13.29,0.025,92.3
2023-11-12T08:37:03,42.805,6.029,0.028,-0.01,-0.003,105.0,105.0,103.0,13.4,1505.2,359.1,-0.8,1.8,2471.619,13.29,0.029,109.6
2023-11-12T08:40:03,42.805,6.029,0.031,0.015,0.001,104.0,104.0,103.0,13.4,1505.2,340.7,-0.8,1.8,2471.602,13.29,0.034,64.2
2023-11-12T08:43:03,42.805,6.029,0.018,0.015,-0.016,105.0,104.0,103.0,13.4,1505.2,338.2,-0.8,1.8,2471.592,13.29,0.023,50.2
2023-11-12T08:46:03,42.805,6.029,0.025,-0.009,-0.021,104.0,106.0,104.0,13.4,1505.2,340.7,-0.8,1.8,2471.606,13.29,0.026,109.8
2023-11-12T08:49:03,42.805,6.029,0.026,-0.012,0.012,103.0,105.0,102.0,13.4,1505.2,350.0,-0.8,1.8,2471.6,13.29,0.028,114.8
2023-11-12T08:52:03,42.805,6.029,0.022,0.012,-0.01,106.0,105.0,102.0,13.4,1505.2,343.3,-0.7,1.8,2471.598,13.29,0.025,61.4
2023-11-12T08:55:03,42.805,6.029,0.015,-0.001,-0.006,105.0,106.0,103.0,13.4,1505.2,0.9,-0.8,1.8,2471.557,13.29,0.015,93.8
2023-11-12T08:58:03,42.805,6.029,0.033,-0.004,-0.007,105.0,105.0,103.0,13.3,1505.2,351.4,-0.8,1.8,2471.594,13.29,0.033,96.9
2023-11-12T09:04:03,42.805,6.029,0.037,0.014,0.013,106.0,105.0,103.0,13.4,1505.2,355.2,-0.8,1.8,2471.591,13.29,0.039,69.3
2023-11-12T09:07:03,42.805,6.029,0.029,0.011,-0.01,105.0,104.0,102.0,13.3,1505.2,348.3,-0.8,1.8,2471.606,13.29,0.031,69.2
2023-11-12T09:10:03,42.805,6.029,0.015,0.001,-0.019,105.0,104.0,102.0,13.4,1505.2,335.7,-0.8,1.8,2471.601,13.29,0.015,86.2
2023-11-12T09:13:03,42.805,6.029,0.029,0.005,-0.012,104.0,104.0,102.0,13.4,1505.2,357.0,-0.8,1.8,2471.57,13.29,0.029,80.2
2023-11-12T09:16:03,42.805,6.029,0.038,-0.015,0.006,103.0,105.0,103.0,13.3,1505.2,353.3,-0.8,1.8,2471.614,13.29,0.04,111.5
2023-11-12T09:19:03,42.805,6.029,0.028,-0.001,-0.001,105.0,104.0,103.0,13.4,1505.2,346.2,-0.8,1.8,2471.574,13.29,0.028,92.0
2023-11-12T09:22:03,42.805,6.029,0.034,-0.017,-0.016,104.0,105.0,103.0,13.4,1505.2,356.4,-0.8,1.8,2471.598,13.29,0.038,116.6
2023-11-12T09:25:03,42.805,6.029,0.035,-0.019,-0.005,105.0,105.0,102.0,13.3,1505.2,342.7,-0.8,1.8,2471.544,13.29,0.039,118.5
2023-11-12T09:28:03,42.805,6.029,0.035,0.0,-0.001,104.0,104.0,102.0,13.4,1505.2,342.1,-0.8,1.8,2471.594,13.29,0.035,90.0
2023-11-12T09:31:03,42.805,6.029,0.036,-0.016,-0.014,104.0,104.0,103.0,13.3,1505.2,359.0,-0.7,1.8,2471.536,13.29,0.039,114.0
2023-11-12T09:34:03,42.805,6.029,0.05,-0.013,-0.015,104.0,108.0,102.0,13.4,1505.2,339.0,-0.8,1.8,2471.559,13.29,0.051,104.6
2023-11-12T09:37:03,42.805,6.029,0.042,0.0,-0.004,104.0,103.0,102.0,13.4,1505.2,335.6,-0.7,1.8,2471.562,13.29,0.042,90.0
2023-11-12T09:40:03,42.805,6.029,0.019,-0.007,0.009,105.0,104.0,102.0,13.3,1505.2,337.1,-0.7,1.8,2471.592,13.29,0.02,110.2
2023-11-12T09:43:03,42.805,6.029,0.034,0.003,0.006,104.0,104.0,103.0,13.4,1505.2,335.2,-0.8,1.8,2471.595,13.29,0.034,85.0
2023-11-12T09:46:03,42.805,6.029,0.03,-0.008,-0.002,104.0,104.0,102.0,13.4,1505.2,1.7,-0.7,1.8,2471.549,13.29,0.031,104.9
2023-11-12T09:49:03,42.805,6.029,0.049,-0.003,0.006,104.0,104.0,103.0,13.4,1505.2,348.3,-0.8,1.8,2471.547,13.29,0.049,93.5
2023-11-12T09:52:03,42.805,6.029,0.016,-0.003,-0.03,104.0,104.0,103.0,13.4,1505.2,335.0,-0.8,1.8,2471.557,13.29,0.016,100.6
2023-11-12T09:55:03,42.805,6.029,0.034,0.01,-0.023,104.0,104.0,102.0,13.3,1505.2,0.0,-0.7,1.9,2471.591,13.29,0.035,73.6
2023-11-12T09:58:03,42.805,6.029,0.013,0.012,0.001,104.0,104.0,103.0,13.3,1505.2,343.2,-0.8,1.8,2471.523,13.29,0.017,47.3
2023-11-12T10:04:03,42.805,6.029,0.003,0.002,0.004,105.0,104.0,103.0,13.4,1505.2,337.7,-0.8,1.8,2471.575,13.29,0.003,56.3